Wahoo, NE

11:23 PM CDT on April 30, 2017 (GMT -0500)
Wahoo Municipal

Weather History for KAHQ - September, 2012

Change the Weather History Date:

Saturday, September 22, 2012

  Actual Average Record
Temperature  
Mean Temperature 52 °F -  
Max Temperature 65 °F 75 °F 90 °F (1988)
Min Temperature 40 °F 46 °F 34 °F (1974)
Degree Days  
Heating Degree Days 12    
Growing Degree Days 2 (Base 50)    
Moisture  
Dew Point 27 °F    
Average Humidity 41    
Maximum Humidity 71    
Minimum Humidity 16    
Precipitation  
Precipitation 0.00 in - - ()
Sea Level Pressure  
Sea Level Pressure 30.21 in    
Wind  
Wind Speed 8 mph (NNW)    
Max Wind Speed 16 mph    
Max Gust Speed 23 mph    
Visibility 10 miles    
Events      
Averages and records for this station are not official NWS values.
T = Trace of Precipitation, MM = Missing Value Source: NWS Daily Summary

Daily Weather History Graph

Daily Weather History Graph

Search for Another Location

Airport or City:

Trip Planner

Search our weather history database for the weather conditions in past years. The results will help you decide how hot, cold, wet, or windy it might be!

Date:

Astronomy

Sep. 22, 2012 Rise Set
Actual Time 7:14 AM CDT 7:22 PM CDT
Civil Twilight 6:46 AM CDT 7:50 PM CDT
Nautical Twilight 6:14 AM CDT 8:22 PM CDT
Astronomical Twilight 5:41 AM CDT 8:55 PM CDT
Moon 2:36 PM CDT (9/22) No Moon Set
Length of Visible Light 13h 03m
Length of Day
12h 08m
Waxing Crescent, 49% of the Moon is Illuminated
Sep 22
Waxing Crescent
Sep 22
First Quarter
Sep 29
Full
Oct 8
Last Quarter
Oct 15
New

Hourly Weather History & Observations

Time (CDT) Temp. Windchill Dew Point Humidity Pressure Visibility Wind Dir Wind Speed Gust Speed Precip Events Conditions
12:15 AM 52.9 °F - 39.9 °F 61% 29.96 in 10.0 mi West 3.5 mph - N/A   Clear
12:35 AM 52.0 °F - 39.9 °F 63% 29.97 in 10.0 mi NW 3.5 mph - N/A   Clear
12:55 AM 47.1 °F - 37.2 °F 68% 29.98 in 10.0 mi NNW 6.9 mph - N/A   Clear
1:15 AM 48.9 °F - 37.4 °F 64% 29.99 in 10.0 mi NW 10.4 mph - N/A   Clear
1:35 AM 55.6 °F - 36.7 °F 49% 30.01 in 10.0 mi NNW 13.8 mph 23.0 mph N/A   Clear
1:55 AM 55.8 °F - 35.8 °F 47% 30.02 in 10.0 mi North 13.8 mph 20.7 mph N/A   Clear
2:15 AM 55.6 °F - 34.9 °F 46% 30.04 in 10.0 mi North 12.7 mph - N/A   Clear
2:35 AM 54.7 °F - 34.3 °F 46% 30.05 in 10.0 mi North 11.5 mph - N/A   Clear
2:55 AM 52.7 °F - 34.7 °F 50% 30.06 in 10.0 mi NNW 9.2 mph - N/A   Clear
3:15 AM 51.1 °F - 34.7 °F 54% 30.07 in 10.0 mi NNW 8.1 mph - N/A   Clear
3:35 AM 49.8 °F - 34.7 °F 56% 30.08 in 10.0 mi NNW 9.2 mph - N/A   Clear
3:55 AM 49.8 °F - 34.0 °F 55% 30.09 in 10.0 mi North 11.5 mph - N/A   Clear
4:15 AM 50.2 °F - 33.3 °F 52% 30.11 in 10.0 mi North 9.2 mph - N/A   Clear
4:35 AM 48.4 °F - 33.4 °F 56% 30.12 in 10.0 mi North 8.1 mph - N/A   Clear
4:55 AM 46.4 °F 42.4 °F 33.8 °F 62% 30.14 in 10.0 mi NNW 8.1 mph - N/A   Clear
5:15 AM 46.6 °F - 33.3 °F 60% 30.15 in 10.0 mi NNW 8.1 mph - N/A   Clear
5:35 AM 44.6 °F 39.7 °F 33.3 °F 64% 30.15 in 10.0 mi North 9.2 mph - N/A   Clear
5:55 AM 43.0 °F 38.8 °F 32.9 °F 68% 30.17 in 10.0 mi NNW 6.9 mph - N/A   Clear
6:15 AM 42.6 °F 37.8 °F 32.5 °F 68% 30.18 in 10.0 mi NNW 8.1 mph - N/A   Clear
6:35 AM 42.8 °F 37.0 °F 31.8 °F 65% 30.19 in 10.0 mi North 10.4 mph - N/A   Clear
6:55 AM 42.4 °F 37.5 °F 30.2 °F 62% 30.21 in 10.0 mi North 8.1 mph - N/A   Clear
7:15 AM 41.0 °F 37.1 °F 28.4 °F 61% 30.22 in 10.0 mi NNW 5.8 mph - N/A   Clear
7:35 AM 40.5 °F 35.8 °F 28.4 °F 62% 30.24 in 10.0 mi NNW 6.9 mph - N/A   Clear
7:55 AM 41.5 °F 35.9 °F 29.3 °F 62% 30.25 in 10.0 mi NW 9.2 mph - N/A   Clear
8:15 AM 42.8 °F 36.6 °F 29.7 °F 60% 30.26 in 10.0 mi NNW 11.5 mph - N/A   Clear
8:35 AM 43.9 °F 37.9 °F 29.3 °F 57% 30.27 in 10.0 mi North 11.5 mph - N/A   Clear
8:55 AM 45.3 °F 39.3 °F 28.4 °F 52% 30.27 in 10.0 mi North 12.7 mph 17.3 mph N/A   Clear
9:15 AM 46.2 °F 40.8 °F 28.4 °F 50% 30.28 in 10.0 mi NNW 11.5 mph - N/A   Clear
9:55 AM 48.6 °F - 27.7 °F 44% 30.29 in 10.0 mi NW 12.7 mph 17.3 mph N/A   Clear
10:15 AM 49.8 °F - 26.4 °F 40% 30.30 in 10.0 mi North 11.5 mph - N/A   Clear
10:35 AM 50.9 °F - 26.2 °F 38% 30.30 in 10.0 mi NNW 11.5 mph - N/A   Clear
10:55 AM 52.0 °F - 26.2 °F 37% 30.30 in 10.0 mi North 13.8 mph - N/A   Clear
11:15 AM 52.7 °F - 26.4 °F 36% 30.30 in 10.0 mi NNW 13.8 mph 19.6 mph N/A   Clear
11:35 AM 54.7 °F - 25.9 °F 33% 30.30 in 10.0 mi NNW 9.2 mph 17.3 mph N/A   Clear
11:55 AM 55.4 °F - 25.5 °F 32% 30.30 in 10.0 mi NW 13.8 mph 18.4 mph N/A   Clear
12:15 PM 57.2 °F - 25.9 °F 30% 30.30 in 10.0 mi North 12.7 mph 18.4 mph N/A   Clear
12:35 PM 57.9 °F - 25.3 °F 29% 30.30 in 10.0 mi NNW 11.5 mph 19.6 mph N/A   Clear
12:55 PM 59.0 °F - 24.6 °F 27% 30.29 in 10.0 mi NNW 13.8 mph 19.6 mph N/A   Clear
1:15 PM 60.1 °F - 24.1 °F 25% 30.29 in 10.0 mi North 11.5 mph - N/A   Clear
1:35 PM 60.6 °F - 23.9 °F 25% 30.29 in 10.0 mi North 11.5 mph 17.3 mph N/A   Clear
1:55 PM 61.3 °F - 24.1 °F 24% 30.28 in 10.0 mi North 16.1 mph 19.6 mph N/A   Clear
2:15 PM 63.0 °F - 22.8 °F 22% 30.27 in 10.0 mi North 13.8 mph 21.9 mph N/A   Clear
2:35 PM 63.3 °F - 21.9 °F 21% 30.27 in 10.0 mi North 11.5 mph 17.3 mph N/A   Clear
2:55 PM 63.1 °F - 21.9 °F 21% 30.27 in 10.0 mi North 15.0 mph 19.6 mph N/A   Clear
3:15 PM 63.9 °F - 21.6 °F 20% 30.27 in 10.0 mi NW 9.2 mph 17.3 mph N/A   Clear
3:35 PM 64.4 °F - 21.6 °F 19% 30.26 in 10.0 mi North 11.5 mph 19.6 mph N/A   Clear
3:55 PM 64.8 °F - 20.5 °F 18% 30.25 in 10.0 mi North 13.8 mph 18.4 mph N/A   Clear
4:15 PM 65.3 °F - 20.5 °F 18% 30.25 in 10.0 mi NNW 13.8 mph - N/A   Clear
4:35 PM 64.4 °F - 19.6 °F 18% 30.25 in 10.0 mi North 8.1 mph - N/A   Clear
4:55 PM 64.4 °F - 17.2 °F 16% 30.24 in 10.0 mi NNW 11.5 mph - N/A   Clear
5:15 PM 64.0 °F - 18.9 °F 18% 30.24 in 10.0 mi North 5.8 mph - N/A   Clear
5:35 PM 64.2 °F - 17.4 °F 16% 30.24 in 10.0 mi NNW 11.5 mph - N/A   Clear
5:55 PM 63.5 °F - 16.5 °F 16% 30.24 in 10.0 mi NNW 10.4 mph - N/A   Clear
6:15 PM 63.0 °F - 17.1 °F 17% 30.24 in 10.0 mi North 8.1 mph - N/A   Clear
6:35 PM 61.9 °F - 18.0 °F 18% 30.24 in 10.0 mi North 6.9 mph - N/A   Clear
6:55 PM 59.9 °F - 20.7 °F 22% 30.25 in 10.0 mi North 5.8 mph - N/A   Clear
7:15 PM 57.0 °F - 21.7 °F 26% 30.24 in 10.0 mi North 6.9 mph - N/A   Clear
7:35 PM 54.0 °F - 21.7 °F 29% 30.24 in 10.0 mi North 5.8 mph - N/A   Clear
7:55 PM 52.0 °F - 21.2 °F 30% 30.25 in 10.0 mi North 5.8 mph - N/A   Clear
8:15 PM 50.5 °F - 21.7 °F 32% 30.25 in 10.0 mi North 3.5 mph - N/A   Clear
8:35 PM 51.6 °F - 21.7 °F 31% 30.25 in 10.0 mi North 3.5 mph - N/A   Clear
8:55 PM 52.0 °F - 21.0 °F 30% 30.26 in 10.0 mi North 3.5 mph - N/A   Clear
9:15 PM 51.1 °F - 20.8 °F 31% 30.26 in 10.0 mi Calm Calm - N/A   Clear
9:35 PM 45.3 °F - 24.8 °F 45% 30.27 in 10.0 mi Calm Calm - N/A   Clear
9:55 PM 43.7 °F - 25.3 °F 48% 30.27 in 10.0 mi Calm Calm - N/A   Clear
10:15 PM 44.8 °F - 24.4 °F 45% 30.27 in 10.0 mi Calm Calm - N/A   Clear
10:35 PM 43.0 °F 41.3 °F 25.3 °F 50% 30.27 in 10.0 mi North 3.5 mph - N/A   Clear
10:55 PM 44.4 °F - 25.0 °F 46% 30.27 in 10.0 mi Calm Calm - N/A   Clear
11:15 PM 43.9 °F - 24.8 °F 47% 30.28 in 10.0 mi Calm Calm - N/A   Clear
11:35 PM 41.5 °F 39.6 °F 25.9 °F 54% 30.28 in 10.0 mi WNW 3.5 mph - N/A   Clear
11:55 PM 40.5 °F - 31.8 °F 71% 30.28 in 10.0 mi Calm Calm - N/A   Clear